TimeEDT,TemperatureF,Dew PointF,Humidity,Sea Level PressureIn,VisibilityMPH,Wind Direction,Wind SpeedMPH,Gust SpeedMPH,PrecipitationIn,Events,Conditions,WindDirDegrees,DateUTC
12:51 AM,46.9,37.0,68,29.93,10.0,NNW,10.4,-,N/A,,Overcast,330,2013-05-17 04:51:00
1:18 AM,46.4,37.4,71,29.94,10.0,NNW,4.6,-,N/A,,Mostly Cloudy,340,2013-05-17 05:18:00
1:37 AM,44.6,35.6,71,29.93,10.0,WNW,13.8,20.7,N/A,,Mostly Cloudy,290,2013-05-17 05:37:00
1:51 AM,45.0,35.1,68,29.94,10.0,NW,11.5,25.3,N/A,,Partly Cloudy,310,2013-05-17 05:51:00
2:09 AM,44.6,35.6,71,29.94,10.0,NNW,5.8,25.3,N/A,,Mostly Cloudy,330,2013-05-17 06:09:00
2:51 AM,45.0,36.0,71,29.96,10.0,NW,9.2,17.3,N/A,,Overcast,320,2013-05-17 06:51:00
3:51 AM,45.0,36.0,71,29.98,10.0,NNW,5.8,-,N/A,,Overcast,340,2013-05-17 07:51:00
4:51 AM,45.0,37.0,74,30.00,10.0,NW,5.8,-,N/A,,Overcast,310,2013-05-17 08:51:00
5:51 AM,44.1,39.0,82,30.02,10.0,NW,5.8,-,N/A,,Overcast,310,2013-05-17 09:51:00
6:18 AM,44.6,39.2,81,30.02,10.0,NW,5.8,-,N/A,,Overcast,310,2013-05-17 10:18:00
6:51 AM,44.1,39.9,85,30.06,10.0,NW,5.8,-,N/A,,Overcast,310,2013-05-17 10:51:00
7:51 AM,45.0,41.0,86,30.09,10.0,NNW,4.6,-,N/A,,Overcast,330,2013-05-17 11:51:00
8:13 AM,46.4,41.0,81,30.07,10.0,Variable,5.8,-,N/A,,Overcast,0,2013-05-17 12:13:00
8:48 AM,48.2,39.2,71,30.08,10.0,NW,8.1,-,N/A,,Overcast,310,2013-05-17 12:48:00
8:51 AM,48.0,39.9,74,30.10,10.0,NW,8.1,-,N/A,,Overcast,320,2013-05-17 12:51:00
9:51 AM,48.9,37.0,64,30.12,10.0,NW,9.2,20.7,N/A,,Partly Cloudy,320,2013-05-17 13:51:00
10:51 AM,53.1,36.0,52,30.14,10.0,NNW,11.5,20.7,N/A,,Mostly Cloudy,330,2013-05-17 14:51:00
11:51 AM,55.9,35.1,45,30.14,10.0,NNE,11.5,19.6,N/A,,Scattered Clouds,30,2013-05-17 15:51:00
12:51 PM,57.9,36.0,44,30.14,10.0,NW,10.4,23.0,N/A,,Mostly Cloudy,320,2013-05-17 16:51:00
1:51 PM,61.0,37.9,42,30.14,10.0,NW,13.8,21.9,N/A,,Overcast,320,2013-05-17 17:51:00
2:51 PM,60.1,37.0,42,30.16,10.0,NW,15.0,23.0,N/A,,Partly Cloudy,310,2013-05-17 18:51:00
3:51 PM,60.1,35.1,39,30.16,10.0,North,12.7,19.6,N/A,,Scattered Clouds,360,2013-05-17 19:51:00
4:51 PM,59.0,33.8,39,30.16,10.0,NNW,6.9,-,N/A,,Partly Cloudy,340,2013-05-17 20:51:00
5:51 PM,61.0,37.0,41,30.18,10.0,WNW,9.2,-,N/A,,Scattered Clouds,290,2013-05-17 21:51:00
6:51 PM,59.0,36.0,42,30.20,10.0,NW,6.9,-,N/A,,Partly Cloudy,310,2013-05-17 22:51:00
7:51 PM,57.0,36.0,45,30.21,10.0,NNE,5.8,-,N/A,,Partly Cloudy,30,2013-05-17 23:51:00
8:51 PM,51.1,37.9,61,30.23,10.0,Calm,Calm,-,N/A,,Mostly Cloudy,0,2013-05-18 00:51:00
9:51 PM,45.0,37.9,76,30.26,10.0,South,3.5,-,N/A,,Partly Cloudy,170,2013-05-18 01:51:00
10:51 PM,45.0,37.9,76,30.27,10.0,South,3.5,-,N/A,,Partly Cloudy,180,2013-05-18 02:51:00
11:51 PM,44.1,37.9,79,30.28,10.0,Calm,Calm,-,N/A,,Partly Cloudy,0,2013-05-18 03:51:00